Flag for Ireland Weather past 2 weeks in Limerick, Ireland

Now
63 °F

Sprinkles. Broken clouds.


Feels Like: 63 °F
Forecast: 56 / 70 °F
Wind: 13 mph from South

Location: Shannon Airport

Current Time: Jul 2, 2015 at 2:02:33 PM

Latest Report: Jul 2, 2015 at 1:30 PM


Visibility: N/A

Pressure: 29.98 "Hg

Humidity: 77%

Dew point: 55 °F

Location of LimerickLocation

Historic Weather in Limerick — Graph

°F

Limerick temperature yesterday

Maximum temperature yesterday: 70 °F (at 4:30 PM)
Minimum temperature yesterday: 55 °F (at 12:30 AM)
Average temperature yesterday: 61 °F

Past Weeks' High & Low Weather Summary

 TemperatureHumidityPressure
High72 °F (Jun 30, 3:00 PM)100% (Jun 17, 2:00 PM)30.33 "Hg (Jun 17, 2:00 PM)
Low48 °F (Jun 22, 5:00 AM)53% (Jun 23, 7:00 PM)29.77 "Hg (Jul 1, 2:30 PM)
Average59 °F80%30.03 "Hg
* Reported Jun 17 1:00 PM — Jul 2 1:00 PM, Limerick, Weather by CustomWeather, © 2015

Note: Actual official high and low records may vary slightly from our data, if they occured in-between our weather recording intervals... More about our weather records

Advertising

Limerick weather history for previous 24 hours

 ConditionsComfort  
Time TempWeatherWind HumidityBarometerVisibility
1:00 PM
Thu, Jul 2
66 °FPartly sunny.9 mph60%29.98 "HgN/A
12:30 PM66 °FPartly sunny.9 mph60%29.98 "HgN/A
12:00 PM64 °FPartly sunny.6 mph64%29.98 "HgN/A
11:30 AM64 °FPartly sunny.8 mph64%29.98 "HgN/A
11:00 AM63 °FPartly sunny.9 mph68%29.98 "HgN/A
10:30 AM63 °FScattered clouds.9 mph73%29.98 "HgN/A
10:00 AM63 °FScattered clouds.13 mph73%29.98 "HgN/A
9:30 AM61 °FPassing clouds.12 mph77%29.98 "HgN/A
9:00 AM61 °FPassing clouds.7 mph77%29.98 "HgN/A
8:30 AM59 °FPassing clouds.8 mph82%29.98 "HgN/A
8:00 AM57 °FPassing clouds.5 mph88%29.95 "HgN/A
7:30 AM55 °FPassing clouds.7 mph88%29.95 "HgN/A
7:00 AM55 °FPassing clouds.7 mph88%29.95 "HgN/A
6:30 AM54 °FPassing clouds.5 mph94%29.95 "HgN/A
6:00 AM54 °FPassing clouds.6 mph94%29.95 "HgN/A
5:30 AM54 °FFog.6 mph94%29.92 "HgN/A
5:00 AM54 °FPassing clouds.7 mph100%29.92 "HgN/A
4:30 AM55 °FPassing clouds.6 mph94%29.92 "HgN/A
4:00 AM55 °FPassing clouds.6 mph94%29.89 "HgN/A
3:30 AM55 °FPassing clouds.2 mph94%29.89 "HgN/A
3:00 AM55 °FPartly cloudy.3 mph94%29.89 "HgN/A
2:30 AM57 °FLow clouds.3 mph94%29.89 "HgN/A
2:00 AM57 °FPartly cloudy.5 mph94%29.89 "HgN/A
1:30 AM57 °FPartly cloudy.7 mph94%29.89 "HgN/A
1:00 AM57 °FPartly cloudy.9 mph94%29.86 "HgN/A
12:30 AM57 °FLight rain. Passing clouds.7 mph94%29.86 "HgN/A
12:00 AM57 °FPartly cloudy.7 mph100%29.86 "HgN/A
11:30 PM
Wed, Jul 1
57 °FLight rain. Partly cloudy.6 mph100%29.86 "Hg4 mi
11:00 PM57 °FLight rain. Mostly cloudy.7 mph100%29.83 "Hg4 mi
10:00 PM57 °FLight rain. Broken clouds.6 mph100%29.83 "Hg4 mi
9:30 PM59 °FLight rain. Broken clouds.7 mph94%29.80 "Hg5 mi
9:00 PM59 °FDrizzle. Partly sunny.5 mph94%29.80 "Hg4 mi
8:30 PM59 °FBroken clouds.9 mph100%29.80 "HgN/A
8:00 PM61 °FDrizzle. Broken clouds.7 mph94%29.80 "Hg4 mi
7:30 PM63 °FBroken clouds.7 mph88%29.77 "HgN/A
7:00 PM63 °FSprinkles. Broken clouds.9 mph94%29.77 "Hg5 mi
6:30 PM64 °FSprinkles. Broken clouds.8 mph88%29.77 "HgN/A
6:00 PM63 °FSprinkles. Partly sunny.12 mph94%29.77 "HgN/A
5:30 PM68 °FSprinkles. Partly sunny.6 mph78%29.77 "HgN/A
5:00 PM70 °FPartly sunny.3 mph69%29.77 "HgN/A
4:30 PM70 °FBroken clouds.5 mph64%29.77 "HgN/A
4:00 PM68 °FBroken clouds.3 mph73%29.77 "HgN/A
3:30 PM66 °FBroken clouds.3 mph78%29.77 "HgN/A
3:00 PM66 °FSprinkles. Scattered clouds.5 mph73%29.77 "Hg4 mi
2:30 PM68 °FBroken clouds.2 mph69%29.77 "HgN/A
2:00 PM66 °FBroken clouds.2 mph73%29.80 "HgN/A
Weather by CustomWeather, © 2015

See weather overviewHow to use our weather pages